Location: East Arcadia
(34.1056°N, 118.0176°W)
Time: 08:49:06
(UTC+00:00)

DELTA 2 R/B (1) - Pass Details

Date: 10 December 2023
Orbit: 788 x 802 km, 39.6° (Epoch: 24 February)

Event Time Altitude Azimuth Distance (km) Brightness Sun altitude
Rises 03:11:08 0° 267° (W) 3,293 8.0 -30.0°
Reaches altitude 10° 03:13:41 10° 272° (W) 2,361 6.9 -30.5°
Enters shadow 03:18:00 46° 308° (NW) 1,061 4.4 -31.4°
